TimeCDT,TemperatureF,Dew PointF,Humidity,Sea Level PressureIn,VisibilityMPH,Wind Direction,Wind SpeedMPH,Gust SpeedMPH,PrecipitationIn,Events,Conditions,WindDirDegrees,DateUTC
12:53 AM,48.0,46.9,96,29.21,5.0,Calm,Calm,-,0.11,Rain,Light Rain,0,2012-10-18 05:53:00
1:48 AM,48.2,46.4,93,29.18,5.0,Calm,Calm,-,0.07,Rain,Light Rain,0,2012-10-18 06:48:00
1:53 AM,48.0,46.9,96,29.18,4.0,NW,3.5,-,0.07,Rain,Rain,310,2012-10-18 06:53:00
2:03 AM,48.2,46.4,93,29.18,4.0,Calm,Calm,-,0.02,Rain,Rain,0,2012-10-18 07:03:00
2:24 AM,48.2,46.4,93,29.16,4.0,NW,3.5,-,0.06,Rain,Light Rain,310,2012-10-18 07:24:00
2:38 AM,48.2,46.4,93,29.15,6.0,Variable,4.6,-,0.07,Rain,Light Rain,0,2012-10-18 07:38:00
2:53 AM,48.0,46.0,93,29.15,6.0,WNW,4.6,-,0.08,Rain,Light Rain,290,2012-10-18 07:53:00
3:05 AM,48.2,46.4,93,29.14,9.0,WNW,6.9,-,0.00,Rain,Light Rain,300,2012-10-18 08:05:00
3:53 AM,48.0,46.9,96,29.14,4.0,WSW,4.6,-,0.03,Rain,Light Rain,240,2012-10-18 08:53:00
4:07 AM,48.2,46.4,93,29.15,7.0,WSW,5.8,-,0.00,Rain,Light Rain,240,2012-10-18 09:07:00
4:53 AM,48.0,46.9,96,29.15,7.0,WSW,8.1,-,0.02,Rain,Light Rain,240,2012-10-18 09:53:00
5:53 AM,46.9,45.0,93,29.15,9.0,WSW,6.9,-,0.03,Rain,Light Rain,250,2012-10-18 10:53:00
6:53 AM,46.0,45.0,96,29.16,10.0,WSW,3.5,-,0.02,Rain,Light Rain,240,2012-10-18 11:53:00
7:53 AM,46.0,45.0,96,29.18,10.0,South,5.8,-,0.00,,Overcast,180,2012-10-18 12:53:00
8:27 AM,46.4,44.6,93,29.18,10.0,SSW,6.9,-,N/A,,Overcast,200,2012-10-18 13:27:00
8:53 AM,46.0,45.0,96,29.20,4.0,SSW,5.8,-,N/A,,Overcast,200,2012-10-18 13:53:00
9:53 AM,46.0,45.0,96,29.21,10.0,SSW,5.8,-,N/A,,Overcast,200,2012-10-18 14:53:00
10:18 AM,46.4,44.6,93,29.20,9.0,South,4.6,-,N/A,,Overcast,190,2012-10-18 15:18:00
10:35 AM,46.4,44.6,93,29.21,4.0,South,4.6,-,N/A,,Overcast,170,2012-10-18 15:35:00
10:53 AM,46.0,44.1,93,29.23,6.0,SSW,4.6,-,N/A,,Overcast,200,2012-10-18 15:53:00
11:53 AM,45.0,44.1,97,29.24,3.0,Calm,Calm,-,N/A,,Overcast,0,2012-10-18 16:53:00
12:03 PM,44.6,44.6,100,29.22,2.0,South,4.6,-,N/A,,Overcast,170,2012-10-18 17:03:00
12:14 PM,44.6,44.6,100,29.22,1.2,South,6.9,-,0.01,Rain,Light Rain,180,2012-10-18 17:14:00
12:31 PM,44.6,42.8,93,29.23,2.5,South,5.8,-,0.01,,Overcast,190,2012-10-18 17:31:00
12:40 PM,44.6,42.8,93,29.23,1.5,South,5.8,-,0.02,Rain,Light Rain,190,2012-10-18 17:40:00
12:50 PM,44.6,44.6,100,29.23,3.0,SSW,6.9,-,0.02,Rain,Light Rain,210,2012-10-18 17:50:00
12:53 PM,45.0,44.1,97,29.25,4.0,SSW,5.8,-,0.02,,Overcast,210,2012-10-18 17:53:00
1:53 PM,46.0,43.0,89,29.26,10.0,SSW,5.8,-,0.00,,Overcast,210,2012-10-18 18:53:00
2:23 PM,46.4,42.8,87,29.25,7.0,South,9.2,-,0.01,,Overcast,180,2012-10-18 19:23:00
2:43 PM,46.4,42.8,87,29.26,10.0,South,4.6,-,0.01,,Overcast,190,2012-10-18 19:43:00
2:53 PM,46.0,42.1,86,29.28,10.0,South,4.6,-,0.01,,Mostly Cloudy,190,2012-10-18 19:53:00
3:53 PM,46.0,41.0,83,29.30,9.0,SSE,4.6,-,N/A,,Overcast,160,2012-10-18 20:53:00
4:53 PM,45.0,42.1,90,29.34,9.0,SSE,4.6,-,0.01,Rain,Light Rain,160,2012-10-18 21:53:00
5:07 PM,44.6,42.8,93,29.32,10.0,SSE,4.6,-,0.00,Rain,Light Rain,150,2012-10-18 22:07:00
5:35 PM,44.6,42.8,93,29.33,10.0,SE,3.5,-,0.00,,Overcast,140,2012-10-18 22:35:00
5:53 PM,44.1,41.0,89,29.36,10.0,South,4.6,-,0.00,,Overcast,170,2012-10-18 22:53:00
6:15 PM,44.6,41.0,87,29.35,10.0,Calm,Calm,-,N/A,,Overcast,0,2012-10-18 23:15:00
6:53 PM,44.1,41.0,89,29.38,10.0,SE,6.9,-,N/A,,Overcast,140,2012-10-18 23:53:00
7:06 PM,42.8,39.2,87,29.37,10.0,SSE,5.8,-,N/A,,Overcast,150,2012-10-19 00:06:00
7:28 PM,42.8,41.0,93,29.37,10.0,ESE,4.6,-,N/A,,Overcast,120,2012-10-19 00:28:00
7:36 PM,42.8,41.0,93,29.38,10.0,ESE,4.6,-,N/A,,Overcast,110,2012-10-19 00:36:00
7:53 PM,43.0,39.9,89,29.40,10.0,SE,4.6,-,N/A,,Overcast,130,2012-10-19 00:53:00
8:53 PM,42.1,39.9,92,29.41,10.0,SE,4.6,-,N/A,,Overcast,140,2012-10-19 01:53:00
9:04 PM,42.8,39.2,87,29.39,10.0,ESE,3.5,-,N/A,,Overcast,120,2012-10-19 02:04:00
9:45 PM,42.8,39.2,87,29.41,10.0,ESE,3.5,-,N/A,,Overcast,110,2012-10-19 02:45:00
9:53 PM,42.1,39.9,92,29.43,10.0,Calm,Calm,-,N/A,,Overcast,0,2012-10-19 02:53:00
10:05 PM,42.8,39.2,87,29.41,10.0,ESE,4.6,-,N/A,,Overcast,110,2012-10-19 03:05:00
10:20 PM,42.8,39.2,87,29.41,10.0,ESE,5.8,-,N/A,,Overcast,110,2012-10-19 03:20:00
10:53 PM,42.1,39.9,92,29.45,10.0,East,4.6,-,0.00,Rain,Light Rain,100,2012-10-19 03:53:00
11:15 PM,42.8,39.2,87,29.43,9.0,ESE,4.6,-,0.00,Rain,Light Rain,110,2012-10-19 04:15:00
11:23 PM,42.8,39.2,87,29.43,5.0,East,4.6,-,0.01,Rain,Light Rain,100,2012-10-19 04:23:00
11:53 PM,41.0,39.9,96,29.46,6.0,East,4.6,-,0.01,Rain,Light Rain,80,2012-10-19 04:53:00